This is the latest recevied weather packets stored in our database for station/object KP4CRN. If no packets are shown the sender has not sent any weather packets the latest 10 day(s).
| Time | Temp. | Humidity | Pressure | Rain* | Wind** | Luminosity | Snow |
|---|---|---|---|---|---|---|---|
| 1778107594 | 29.44° C | 73% | 1016.5 hPa | 0 mm | - | 4 W/m² | - |
| 1778107291 | 29.44° C | 73% | 1016.5 hPa | 0 mm | - | 7 W/m² | - |
| 1778106987 | 29.44° C | 72% | 1016.3 hPa | 0 mm | - | 10 W/m² | - |
| 1778106683 | 30° C | 72% | 1016.2 hPa | 0 mm | - | 14 W/m² | - |
| 1778106380 | 30° C | 72% | 1016.2 hPa | 0 mm | - | 17 W/m² | - |
| 1778106076 | 30.56° C | 70% | 1016.2 hPa | 0 mm | - | 24 W/m² | - |
| 1778105774 | 30° C | 70% | 1016.1 hPa | 0 mm | - | 31 W/m² | - |
| 1778105472 | 30.56° C | 69% | 1016.1 hPa | 0 mm | - | 38 W/m² | - |
| 1778105168 | 30.56° C | 69% | 1016.1 hPa | 0 mm | - | 46 W/m² | - |
| 1778104864 | 30.56° C | 70% | 1015.9 hPa | 0 mm | - | 54 W/m² | - |
| 1778104561 | 31.11° C | 69% | 1015.9 hPa | 0 mm | - | 64 W/m² | - |
| 1778104256 | 31.11° C | 69% | 1015.7 hPa | 0 mm | - | 75 W/m² | - |
| 1778103953 | 31.11° C | 67% | 1015.7 hPa | 0 mm | - | 86 W/m² | - |
| 1778103651 | 31.11° C | 66% | 1015.5 hPa | 0 mm | - | 98 W/m² | - |
| 1778103349 | 31.67° C | 65% | 1015.7 hPa | 0 mm | - | 109 W/m² | - |
| 1778103046 | 31.67° C | 65% | 1015.5 hPa | 0 mm | - | 122 W/m² | - |
| 1778102742 | 31.67° C | 65% | 1015.6 hPa | 0 mm | - | 133 W/m² | - |
| 1778102437 | 31.67° C | 65% | 1015.5 hPa | 0 mm | - | 144 W/m² | - |
| 1778102133 | 31.67° C | 66% | 1015.4 hPa | 0 mm | - | 160 W/m² | - |
| 1778101831 | 31.67° C | 65% | 1015.6 hPa | 0 mm | - | 174 W/m² | - |
| 1778101527 | 31.67° C | 65% | 1015.5 hPa | 0 mm | - | 187 W/m² | - |
| 1778101224 | 31.67° C | 65% | 1015.5 hPa | 0 mm | - | 205 W/m² | - |
| 1778100921 | 31.67° C | 66% | 1015.4 hPa | 0 mm | - | 217 W/m² | - |
| 1778100616 | 32.78° C | 64% | 1015.3 hPa | 0 mm | - | 232 W/m² | - |
| 1778100314 | 32.22° C | 65% | 1015.5 hPa | 0 mm | - | 248 W/m² | - |
* Rain latest hour (hover to see other rain measurements)
** Current wind speed in m/s (hover to see current wind gust speed)